カタログに戻る

FREGAT DEB

LostHEO
NORAD 46624·DEBRIS·🇷🇺 Russia

打ち上げ Jul 18, 2011 から Baikonur Cosmodrome

Loading…

次のパス (今後24時間)

TLE

古いSource: Space-Track

元期: Dec 6, 2020, 00:09 UTC

1 46624U 11037MQ  20341.00665791  .00490684  00000-0  59176+0 0  9996
2 46624  52.2229  95.3696 2587818 226.0457 109.5791  9.50043537  6867

AllMySatでFREGAT DEBをリアルタイム追跡

Download on the App Store